Theta_e
342 343 344 346 348 349 349 349 349 348 347 345 343 342 341 342 343 344 345 344 343 343 343 343 343 343 343 342 344 347 348 346 344 343 342 342 342 342 344 346 346 346
339 341 342 344 347 348 348 349 349 348 347 346 345 344 344 344 344 344 345 344 343 343 343 342 342 343 343 343 344 347 348 347 345 344 343 342 341 341 342 344 345 345
338 338 339 341 345 347 348 349 349 348 347 347 347 347 347 346 345 346 345 344 343 343 342 342 342 343 343 344 345 346 347 347 347 347 345 343 342 341 341 342 342 343
336 337 337 338 342 347 348 348 349 348 348 348 348 347 348 347 346 346 346 344 343 343 343 343 343 343 344 344 344 345 345 346 347 347 345 344 342 342 341 341 341 342
335 336 336 336 340 346 348 348 347 347 347 347 347 347 348 347 347 346 345 344 343 342 342 342 343 343 343 344 344 344 344 345 347 346 344 344 344 343 342 341 341 341
333 335 336 336 338 344 348 347 346 346 346 346 346 346 347 346 346 346 345 345 344 343 343 342 342 343 343 344 344 344 344 344 345 345 344 344 344 344 344 343 342 342
333 333 335 337 337 341 345 346 345 345 344 344 345 345 346 345 344 344 344 345 346 346 345 344 344 344 344 344 343 343 344 343 343 343 344 343 343 344 344 343 342 342
333 333 334 336 337 338 342 344 345 343 343 343 343 343 344 343 342 342 343 344 346 347 347 347 347 347 347 345 343 343 342 342 342 343 343 343 342 343 344 344 343 343
336 334 334 335 337 338 339 341 342 342 341 341 341 341 342 342 341 340 341 342 345 346 347 348 348 349 349 348 346 344 343 342 342 342 343 343 342 343 343 344 343 342
342 338 335 334 335 337 338 339 340 341 340 340 340 340 340 340 340 340 340 341 342 343 345 346 348 349 350 350 349 347 344 343 343 343 343 343 343 343 343 343 343 342
346 343 339 336 334 335 336 337 339 339 339 339 339 339 338 338 338 339 339 340 340 342 344 345 347 348 349 350 350 349 347 344 343 343 343 343 343 343 343 344 344 343
347 346 344 340 336 335 334 335 337 338 338 338 338 338 336 336 336 338 339 339 339 341 344 345 347 347 348 348 348 348 348 346 344 343 342 342 341 342 342 342 342 342
348 347 348 345 341 338 336 336 336 336 337 337 336 335 334 333 334 335 337 339 339 340 342 345 347 347 347 346 346 346 346 345 345 343 341 340 340 340 340 341 341 340
349 348 348 348 346 343 340 339 337 335 336 336 336 335 333 332 332 334 336 338 340 340 341 344 347 348 348 347 346 346 345 345 345 343 342 340 339 339 339 340 340 340
350 350 348 349 349 347 344 342 341 338 335 336 337 338 336 334 332 333 335 339 341 342 342 343 345 346 347 348 347 346 345 344 344 344 344 342 341 339 339 338 338 338
351 351 350 349 350 349 347 346 346 344 341 338 339 340 342 342 341 338 337 338 342 344 344 344 344 345 345 346 347 346 345 345 345 345 345 344 343 341 339 338 337 336
352 351 350 350 350 351 351 350 351 350 348 345 343 342 343 344 345 344 342 341 342 344 345 346 345 344 344 345 346 346 346 346 345 344 345 345 344 343 341 340 340 339
352 352 352 352 351 352 353 354 354 353 351 349 347 346 346 344 343 342 342 344 344 345 346 346 345 345 345 346 346 346 347 347 346 345 344 344 344 344 343 342 342 342
351 352 352 352 352 353 354 354 354 354 352 351 350 349 348 347 346 344 343 345 347 347 347 347 347 346 346 346 346 346 346 347 347 346 346 344 344 343 343 343 343 343
350 350 350 351 352 352 352 352 352 353 352 352 351 350 349 349 349 348 347 348 349 350 349 349 349 348 348 347 346 346 345 345 346 346 346 346 344 343 343 343 343 343
349 350 350 350 351 351 351 351 351 351 351 351 351 351 350 350 350 349 349 349 351 352 351 350 350 349 349 349 348 347 346 344 344 345 345 346 345 343 343 343 343 343
346 348 349 349 350 350 351 351 351 351 350 350 350 350 350 350 350 350 349 350 351 351 351 351 351 351 350 350 349 348 347 346 345 344 343 345 345 344 343 343 343 343
341 343 345 346 348 349 350 350 351 351 350 350 350 351 350 350 350 350 350 350 350 350 350 351 351 350 350 349 349 348 348 347 346 344 343 343 344 344 344 344 344 343
335 336 338 341 344 346 347 348 348 349 351 351 351 351 351 351 351 351 351 351 351 350 350 351 350 350 350 350 349 349 349 348 346 345 344 344 344 344 345 345 345 344
332 331 332 334 337 340 343 343 344 347 349 350 350 351 351 351 351 352 351 351 351 351 351 350 350 350 350 349 349 348 348 347 346 345 345 345 345 346 347 347 346 346
329 329 330 330 331 333 337 338 338 340 344 347 349 348 348 349 350 350 351 351 351 351 351 351 351 351 351 350 349 349 348 348 347 346 345 345 345 346 347 347 348 347
Wind_Speed
21 21 19 17 15 13 11 11 11 11 11 11 11 10 9 9 9 10 10 10 10 10 10 9 9 8 8 8 8 7 6 6 6 6 6 6 7 8 9 9 9 8
21 20 19 18 16 15 13 11 12 11 11 11 11 10 9 9 9 10 10 11 11 10 10 10 9 9 9 9 8 7 7 6 5 5 6 6 6 7 8 9 9 9
21 21 20 18 17 16 14 12 12 12 11 11 11 10 9 9 9 10 11 11 11 11 10 9 9 9 9 9 9 8 8 7 6 6 6 6 6 6 7 9 10 10
21 21 20 19 17 16 15 14 13 13 12 11 11 10 10 9 9 10 11 12 12 11 10 9 9 9 9 8 9 9 8 8 7 7 7 6 6 6 7 8 9 10
21 21 20 19 18 17 16 16 15 14 13 12 11 11 10 10 10 11 12 12 12 11 11 10 9 9 9 9 9 9 8 8 8 8 7 7 6 6 7 8 9 9
21 21 21 20 19 18 18 17 16 15 14 13 12 11 11 11 12 12 12 13 12 12 11 11 10 9 9 9 9 9 9 8 9 9 9 7 7 7 7 7 8 9
21 21 21 21 20 20 19 18 16 15 14 13 13 12 12 13 13 12 12 12 12 12 12 11 11 10 9 10 9 9 9 9 10 10 10 9 8 8 8 8 8 9
21 21 21 21 21 21 21 19 18 16 14 13 13 13 13 13 13 13 13 13 13 12 12 12 11 10 10 10 10 10 10 10 11 11 11 10 9 8 9 9 9 9
20 21 21 22 22 22 22 21 19 17 16 14 13 13 13 14 14 14 14 13 14 13 13 12 12 11 10 10 11 11 11 11 11 12 12 11 10 9 9 10 11 10
20 21 21 22 23 23 23 22 21 19 18 16 15 14 14 13 14 15 15 15 15 14 13 13 12 11 10 10 11 11 12 12 12 13 13 13 12 11 10 10 11 11
21 21 21 22 23 24 24 23 22 22 20 19 18 17 16 15 14 15 16 16 16 15 14 13 13 12 12 11 11 11 11 12 13 14 14 14 14 13 12 12 12 12
24 22 21 22 23 24 24 25 24 24 23 21 20 19 18 17 16 16 17 17 17 17 16 15 14 13 13 13 12 12 11 12 13 14 15 15 15 15 14 14 14 14
27 24 23 22 23 23 24 25 26 25 25 23 23 22 21 20 19 19 19 19 19 18 17 16 15 14 14 13 12 11 11 12 12 13 14 15 16 16 16 15 15 15
28 26 24 23 22 23 24 25 26 26 25 25 24 24 23 23 22 21 20 20 20 19 18 18 17 17 16 15 13 12 12 12 12 12 13 14 15 16 16 16 16 15
28 26 24 23 22 23 23 24 25 25 25 25 24 24 23 23 23 22 22 22 21 20 19 19 19 19 19 18 17 15 14 13 12 12 13 13 13 14 15 16 15 15
28 26 25 24 23 23 23 22 23 24 24 25 24 23 22 21 21 22 22 23 22 21 20 20 20 20 20 19 19 18 17 15 14 14 14 14 14 14 14 14 14 15
27 25 25 24 23 23 22 22 23 23 23 23 24 24 23 22 22 22 22 23 23 22 21 20 20 20 20 20 20 20 19 18 17 16 16 16 16 15 14 13 13 14
27 27 27 26 25 24 23 23 24 24 23 23 23 24 24 23 23 23 22 22 22 23 22 21 20 19 19 19 20 20 21 21 20 19 18 18 18 17 16 15 14 14
22 24 24 24 24 24 24 25 25 25 24 24 23 24 24 24 24 24 23 22 22 23 23 22 21 20 19 20 20 21 22 23 23 22 22 21 20 20 19 18 18 17
16 16 17 18 19 20 22 22 23 24 24 24 24 24 24 24 24 25 24 23 22 23 24 24 23 21 21 21 21 21 22 24 25 25 24 24 23 23 22 22 21 20
13 14 14 15 15 16 17 17 17 20 22 23 24 24 24 25 26 25 24 24 24 25 27 27 25 24 23 23 23 22 23 24 26 26 26 26 25 24 24 23 23 22
10 10 11 12 13 13 13 13 14 16 18 18 19 21 22 24 25 25 24 25 26 28 30 29 28 26 25 25 24 24 24 25 26 27 27 27 26 25 25 24 23 23
8 7 7 9 11 11 12 13 14 15 15 14 15 17 20 21 22 23 24 25 27 30 31 30 29 27 26 26 25 25 25 26 26 26 27 27 27 26 26 25 25 24
10 8 6 4 4 6 9 12 11 11 12 13 13 14 15 17 18 19 20 23 25 27 28 28 28 26 25 25 25 26 26 26 27 27 26 26 26 25 25 25 26 25
11 11 11 8 5 1 5 9 10 9 11 12 13 12 12 13 15 16 17 20 21 22 23 23 23 23 23 23 23 24 24 25 26 27 27 27 26 25 24 24 24 25
8 9 10 10 8 7 4 5 7 8 10 11 12 12 11 12 13 14 14 15 16 17 17 17 17 17 18 19 20 20 21 22 23 25 26 27 28 27 27 26 25 25
Wind_Direction
214 214 214 214 215 217 223 230 230 227 227 226 224 224 222 219 220 226 228 228 225 221 221 226 229 232 235 238 239 240 247 248 244 245 244 244 247 245 240 238 242 250
218 218 218 217 217 217 219 227 231 228 226 226 226 226 224 220 221 227 230 230 228 224 223 225 228 230 233 237 240 244 251 249 244 245 245 243 243 242 239 240 244 251
222 221 222 221 220 219 220 227 232 229 226 226 224 227 228 224 223 227 230 231 230 229 227 229 231 231 233 235 236 240 244 241 239 242 243 242 241 240 241 242 245 250
224 224 224 224 224 223 224 228 232 231 230 228 225 226 229 229 228 228 229 231 232 233 233 234 236 237 238 238 238 239 237 233 234 239 240 240 239 238 241 244 247 249
227 226 225 225 224 225 227 229 231 233 235 234 230 228 229 232 233 233 234 235 235 237 239 238 240 243 243 242 244 245 242 236 236 241 242 239 240 241 243 246 248 251
229 228 227 226 224 225 228 230 232 235 237 237 235 234 234 235 237 239 240 239 238 241 242 237 238 243 246 246 249 252 253 250 245 245 244 243 244 245 246 246 247 250
229 230 229 228 226 226 228 230 232 235 236 238 238 238 238 239 240 243 245 244 243 243 242 235 233 241 249 252 254 257 260 260 256 253 249 247 246 247 247 248 247 249
230 231 231 231 230 229 230 230 231 232 234 236 238 239 240 242 243 244 247 246 244 244 243 238 237 245 253 258 260 261 261 261 262 261 258 255 252 249 249 250 252 253
233 232 232 232 233 233 233 233 234 234 234 235 238 240 242 244 246 246 247 247 245 246 245 243 245 249 256 263 266 266 264 263 263 264 264 263 261 257 252 253 259 263
239 237 234 233 233 235 236 236 237 237 238 238 239 241 244 247 248 249 249 249 248 249 249 248 249 251 255 262 267 270 268 265 264 264 264 264 265 265 261 258 263 269
243 242 240 236 234 235 236 238 239 240 241 242 242 242 244 247 249 250 250 251 251 252 253 253 252 252 256 261 266 271 273 270 266 264 265 264 263 263 262 261 261 263
245 245 244 240 236 235 236 238 240 242 243 244 245 246 247 247 247 248 249 251 252 252 252 253 254 255 257 262 267 271 274 275 272 267 265 265 264 262 260 261 262 262
244 243 245 244 241 237 237 238 240 242 245 246 248 249 249 249 249 249 249 250 252 252 250 250 251 254 256 259 262 266 272 274 275 273 269 267 267 265 262 261 263 264
244 243 245 247 246 241 239 239 239 240 243 246 250 252 252 251 251 252 252 251 251 251 251 251 251 252 254 255 256 258 264 268 273 277 276 273 271 269 267 266 266 266
243 242 244 247 248 246 243 243 243 242 241 243 246 250 252 253 252 252 252 251 250 250 251 252 252 252 253 255 258 258 260 264 269 274 278 279 276 272 269 268 268 268
242 242 243 244 246 245 242 243 246 246 244 244 245 245 248 251 252 252 251 250 249 249 251 253 254 254 255 256 260 262 263 264 265 269 274 278 278 276 272 268 267 268
243 244 243 242 243 244 242 243 246 247 246 246 248 247 245 245 247 250 251 252 252 251 252 254 254 255 256 259 262 265 268 268 266 267 269 272 275 276 274 272 272 273
239 240 240 238 239 242 243 243 244 245 243 243 246 248 248 246 244 245 248 251 254 254 254 255 255 256 258 262 266 269 271 273 272 270 268 268 269 271 272 274 275 277
232 234 235 236 237 242 246 246 247 247 245 244 245 246 249 250 249 248 248 249 252 255 256 256 257 260 263 266 269 271 274 276 276 274 271 268 267 267 268 270 271 274
219 223 227 232 237 243 246 246 249 253 253 253 252 251 251 251 250 251 251 250 252 256 259 259 259 261 265 268 271 274 276 278 278 277 274 270 268 267 268 269 270 273
193 207 216 225 234 241 242 241 247 254 256 258 257 255 253 251 250 250 249 249 252 256 258 260 261 263 265 268 271 274 276 277 278 276 274 272 269 268 269 271 273 274
154 182 198 206 213 222 226 226 232 238 241 247 251 252 253 253 254 254 253 253 255 255 256 257 258 261 264 266 268 270 273 276 277 275 273 272 271 269 270 272 274 275
112 140 169 188 200 206 205 204 212 222 227 231 239 246 250 252 254 256 257 256 255 255 254 255 255 258 260 262 264 266 269 273 275 274 273 273 273 273 273 273 274 274
80 86 93 128 193 211 206 199 197 206 215 219 226 235 243 248 250 252 253 252 251 251 251 252 253 255 257 260 262 264 266 268 269 269 271 273 274 274 275 275 275 275
69 67 64 63 68 108 201 207 206 205 209 216 223 227 234 240 241 242 244 246 247 247 247 249 251 253 255 258 260 262 264 265 264 263 265 268 272 273 273 273 272 272
70 71 68 64 63 68 101 171 201 212 216 223 229 233 237 239 237 235 237 240 243 246 247 249 252 255 258 260 261 261 262 263 262 261 262 264 266 268 269 269 269 268